Quincy, IL

12:58 AM CST on January 21, 2018 (GMT -0600)
Quincy Regional-Baldwin

Weather History for KUIN - June, 2013

Change the Weather History Date:

Monday, June 17, 2013

  Actual Average Record
Temperature  
Mean Temperature 74 °F 73 °F  
Max Temperature 83 °F 82 °F 103 °F (1918)
Min Temperature 65 °F 63 °F 48 °F (1974)
Degree Days  
Heating Degree Days 0 0  
Month to date heating degree days 12 14  
Since 1 June heating degree days 12 14  
Since 1 July heating degree days 5638 5580  
Cooling Degree Days 9 8  
Month to date cooling degree days 92 105  
Year to date cooling degree days 204 191  
Since 1 June cooling degree days 92 105  
Growing Degree Days 23 (Base 50)    
Moisture  
Dew Point 66 °F    
Average Humidity 72    
Maximum Humidity 93    
Minimum Humidity 51    
Precipitation  
Precipitation 0.00 in 0.13 in 2.58 in (1926)
Month to date precipitation 0.94 2.35  
Year to date precipitation 26.18 16.44  
Sea Level Pressure  
Sea Level Pressure 29.93 in    
Wind  
Wind Speed 4 mph (ENE)    
Max Wind Speed 12 mph    
Max Gust Speed 16 mph    
Visibility 8 miles    
Events      
T = Trace of Precipitation, MM = Missing Value Source: NWS Daily Summary

Daily Weather History Graph

Daily Weather History Graph

Search for Another Location

Airport or City:

Trip Planner

Search our weather history database for the weather conditions in past years. The results will help you decide how hot, cold, wet, or windy it might be!

Date:

Astronomy

Jun. 17, 2013 Rise Set
Actual Time 5:35 AM CDT 8:35 PM CDT
Civil Twilight 5:02 AM CDT 9:08 PM CDT
Nautical Twilight 4:21 AM CDT 9:50 PM CDT
Astronomical Twilight 3:32 AM CDT 10:38 PM CDT
Moon 2:15 PM CDT (6/17) 1:11 AM CDT (6/17)
Length of Visible Light 16h 05m
Length of Day
15h 00m
First Quarter, 60% of the Moon is Illuminated
Jun 17
First Quarter
Jun 23
Full
Jun 29
Last Quarter
Jul 8
New
Jul 15
First Quarter

Hourly Weather History & Observations

Time (CDT) Temp. Heat Index Dew Point Humidity Pressure Visibility Wind Dir Wind Speed Gust Speed Precip Events Conditions
12:54 AM 71.1 °F - 66.9 °F 87% 29.95 in 10.0 mi Calm Calm - N/A   Clear
1:54 AM 70.0 °F - 66.9 °F 90% 29.94 in 10.0 mi Calm Calm - N/A   Clear
2:54 AM 69.1 °F - 64.9 °F 87% 29.94 in 10.0 mi Calm Calm - N/A   Clear
3:54 AM 69.1 °F - 66.0 °F 90% 29.93 in 9.0 mi South 3.5 mph - N/A   Clear
4:54 AM 66.9 °F - 64.0 °F 90% 29.93 in 6.0 mi Calm Calm - 0.01 in   Clear
5:03 AM 66.2 °F - 64.4 °F 94% 29.94 in 1.8 mi Calm Calm - N/A   Clear
5:11 AM 66.2 °F - 64.4 °F 94% 29.94 in 3.0 mi Calm Calm - N/A   Clear
5:26 AM 66.2 °F - 64.4 °F 94% 29.94 in 1.8 mi Calm Calm - N/A   Clear
5:54 AM 64.9 °F - 63.0 °F 93% 29.93 in 2.5 mi NNE 4.6 mph - N/A   Clear
6:03 AM 66.2 °F - 64.4 °F 94% 29.94 in 4.0 mi Calm Calm - N/A   Clear
6:54 AM 69.1 °F - 66.0 °F 90% 29.94 in 8.0 mi ENE 3.5 mph - N/A   Clear
7:54 AM 72.0 °F - 68.0 °F 87% 29.95 in 9.0 mi ESE 3.5 mph - N/A   Clear
8:54 AM 73.9 °F - 69.1 °F 85% 29.95 in 10.0 mi East 4.6 mph - N/A   Clear
9:54 AM 77.0 °F - 68.0 °F 74% 29.94 in 10.0 mi East 4.6 mph - N/A   Clear
10:54 AM 79.0 °F - 66.9 °F 66% 29.94 in 10.0 mi ESE 4.6 mph - N/A   Clear
11:54 AM 81.0 °F 83.0 °F 66.0 °F 60% 29.95 in 10.0 mi ENE 4.6 mph - N/A   Clear
12:54 PM 82.0 °F 83.8 °F 64.9 °F 56% 29.96 in 10.0 mi ESE 3.5 mph - N/A   Clear
1:54 PM 82.9 °F 84.4 °F 64.0 °F 53% 29.95 in 10.0 mi WNW 4.6 mph - N/A   Clear
2:54 PM 82.9 °F 84.0 °F 63.0 °F 51% 29.92 in 10.0 mi North 3.5 mph - N/A   Clear
3:54 PM 82.0 °F 83.4 °F 64.0 °F 54% 29.90 in 10.0 mi North 6.9 mph - N/A   Clear
4:54 PM 82.0 °F 83.4 °F 64.0 °F 54% 29.90 in 10.0 mi North 8.1 mph - N/A   Clear
5:54 PM 82.9 °F 83.7 °F 62.1 °F 49% 29.91 in 10.0 mi NNE 5.8 mph - N/A   Clear
6:54 PM 81.0 °F 83.3 °F 66.9 °F 62% 29.91 in 10.0 mi North 4.6 mph - N/A   Clear
7:54 PM 79.0 °F - 68.0 °F 69% 29.91 in 10.0 mi NNW 4.6 mph - N/A   Clear
8:54 PM 77.0 °F - 68.0 °F 74% 29.91 in 10.0 mi Calm Calm - N/A   Clear
9:54 PM 71.1 °F - 66.9 °F 87% 29.92 in 10.0 mi South 4.6 mph - N/A   Clear
10:54 PM 71.1 °F - 66.0 °F 84% 29.92 in 10.0 mi SSW 9.2 mph - N/A   Clear
11:54 PM 68.0 °F - 64.0 °F 87% 29.91 in 10.0 mi SSW 6.9 mph - N/A   Clear